This is the latest recevied weather packets stored in our database for station/object TG5ALY-15. If no packets are shown the sender has not sent any weather packets the latest 10 day(s).
| Time | Temp. | Humidity | Pressure | Rain* | Wind** | Luminosity | Snow |
|---|---|---|---|---|---|---|---|
| 1777781201 | 15° C | 82% | 1032.1 hPa | 0 mm | - | 0 W/m² | - |
| 1777779996 | 15.56° C | 81% | 1032.1 hPa | 0 mm | - | 0 W/m² | - |
| 1777778792 | 16.11° C | 80% | 1031.7 hPa | 0 mm | - | 0 W/m² | - |
| 1777777592 | 16.11° C | 78% | 1031.7 hPa | 0 mm | - | 0 W/m² | - |
| 1777776392 | 16.11° C | 79% | 1030.8 hPa | 0 mm | - | 0 W/m² | - |
| 1777775191 | 16.67° C | 78% | 1030.4 hPa | 0 mm | - | 0 W/m² | - |
| 1777773988 | 16.67° C | 77% | 1030.4 hPa | 0 mm | - | 0 W/m² | - |
| 1777772786 | 16.11° C | 83% | 1030.8 hPa | 0 mm | - | 0 W/m² | - |
| 1777771582 | 16.11° C | 83% | 1029.9 hPa | 0 mm | - | 0 W/m² | - |
| 1777766772 | 18.33° C | 71% | 1028.3 hPa | 0 mm | - | 1 W/m² | - |
| 1777765571 | 18.33° C | 73% | 1027.4 hPa | 0 mm | - | 13 W/m² | - |
| 1777764368 | 18.33° C | 77% | 1027.9 hPa | 0 mm | - | 21 W/m² | - |
| 1777760758 | 20° C | 69% | 1027 hPa | 0 mm | - | 62 W/m² | - |
| 1777759555 | 20.56° C | 69% | 1027 hPa | 0 mm | - | 166 W/m² | - |
| 1777757152 | 22.22° C | 60% | 1027 hPa | 0 mm | - | 149 W/m² | - |
| 1777755950 | 23.89° C | 43% | 1026.5 hPa | 0 mm | - | 168 W/m² | - |
| 1777753549 | 24.44° C | 40% | 1027 hPa | 0 mm | - | 242 W/m² | - |
| 1777752348 | 23.33° C | 42% | 1027 hPa | 0 mm | - | 291 W/m² | - |
| 1777751148 | 23.89° C | 38% | 1027.4 hPa | 0 mm | - | 511 W/m² | - |
| 1777749945 | 24.44° C | 36% | 1027.4 hPa | 0 mm | - | 253 W/m² | - |
| 1777748741 | 24.44° C | 35% | 1027.9 hPa | 0 mm | - | 1021 W/m² | - |
| 1777747537 | 25° C | 33% | 1027.9 hPa | 0 mm | - | 443 W/m² | - |
| 1777746333 | 24.44° C | 33% | 1028.3 hPa | 0 mm | - | 1009 W/m² | - |
| 1777745128 | 25° C | 30% | 1028.3 hPa | 0 mm | - | 993 W/m² | - |
| 1777743925 | 23.89° C | 32% | 1029.2 hPa | 0 mm | - | 959 W/m² | - |
* Rain latest hour (hover to see other rain measurements)
** Current wind speed in m/s (hover to see current wind gust speed)